Time,TemperatureF,DewpointF,PressureIn,WindDirection,WindDirectionDegrees,WindSpeedMPH,WindSpeedGustMPH,Humidity,HourlyPrecipIn,Conditions,Clouds,dailyrainin,SoftwareType,DateUTC
2013-04-06 00:05:00,34.4,31.5,30.11,WSW,250,0.0,0.0,89,0.00,,,0.00,Wunderground v.1.15,2013-04-06 04:05:00,
2013-04-06 00:10:00,34.4,31.8,30.12,WSW,250,0.0,0.0,90,0.00,,,0.00,Wunderground v.1.15,2013-04-06 04:10:00,
2013-04-06 00:15:00,34.4,31.5,30.12,WSW,250,0.0,0.0,89,0.00,,,0.00,Wunderground v.1.15,2013-04-06 04:15:00,
2013-04-06 00:20:00,34.3,31.4,30.12,WSW,250,0.0,0.0,89,0.00,,,0.00,Wunderground v.1.15,2013-04-06 04:20:00,
2013-04-06 00:25:00,34.1,31.2,30.12,WSW,250,0.0,0.0,89,0.00,,,0.00,Wunderground v.1.15,2013-04-06 04:25:00,
2013-04-06 00:30:00,34.0,31.4,30.12,WSW,250,0.0,0.0,90,0.00,,,0.00,Wunderground v.1.15,2013-04-06 04:30:00,
2013-04-06 00:35:00,33.8,31.2,30.12,WSW,250,0.0,0.0,90,0.00,,,0.00,Wunderground v.1.15,2013-04-06 04:35:00,
2013-04-06 00:40:00,33.7,31.1,30.12,WSW,250,0.0,0.0,90,0.00,,,0.00,Wunderground v.1.15,2013-04-06 04:40:00,
2013-04-06 00:45:00,33.7,31.1,30.13,WSW,250,0.0,0.0,90,0.00,,,0.00,Wunderground v.1.15,2013-04-06 04:45:00,
2013-04-06 00:50:00,34.1,31.7,30.13,WSW,250,0.0,0.0,91,0.00,,,0.00,Wunderground v.1.15,2013-04-06 04:50:00,
2013-04-06 01:00:00,33.8,31.5,30.13,WSW,250,0.0,0.0,91,0.00,,,0.00,Wunderground v.1.15,2013-04-06 05:00:00,
2013-04-06 01:10:00,33.7,31.4,30.13,WSW,250,0.0,0.0,91,0.00,,,0.00,Wunderground v.1.15,2013-04-06 05:10:00,
2013-04-06 01:20:00,33.4,31.1,30.13,WSW,250,0.0,0.0,91,0.00,,,0.00,Wunderground v.1.15,2013-04-06 05:20:00,
2013-04-06 01:30:00,33.1,30.8,30.13,WSW,250,0.0,0.0,91,0.00,,,0.00,Wunderground v.1.15,2013-04-06 05:30:00,
2013-04-06 01:35:00,32.8,30.5,30.14,WSW,250,0.0,0.0,91,0.00,,,0.00,Wunderground v.1.15,2013-04-06 05:35:00,
2013-04-06 01:40:00,32.7,30.4,30.14,WSW,250,0.0,0.0,91,0.00,,,0.00,Wunderground v.1.15,2013-04-06 05:40:00,
2013-04-06 01:50:00,32.5,30.2,30.14,WSW,250,0.0,0.0,91,0.00,,,0.00,Wunderground v.1.15,2013-04-06 05:50:00,
2013-04-06 02:00:00,32.2,30.1,30.14,WSW,250,0.0,0.0,92,0.00,,,0.00,Wunderground v.1.15,2013-04-06 06:00:00,
2013-04-06 02:10:00,32.2,30.4,30.14,WSW,250,0.0,0.0,93,0.00,,,0.00,Wunderground v.1.15,2013-04-06 06:10:00,
2013-04-06 02:15:00,32.2,30.4,30.14,WSW,250,0.0,0.0,93,0.00,,,0.00,Wunderground v.1.15,2013-04-06 06:15:00,
2013-04-06 02:20:00,32.4,30.6,30.14,WSW,250,0.0,0.0,93,0.00,,,0.00,Wunderground v.1.15,2013-04-06 06:20:00,
2013-04-06 02:30:00,32.7,31.2,30.14,WSW,250,0.0,0.0,94,0.00,,,0.00,Wunderground v.1.15,2013-04-06 06:30:00,
2013-04-06 02:35:00,32.8,31.3,30.14,WSW,250,0.0,0.0,94,0.00,,,0.00,Wunderground v.1.15,2013-04-06 06:35:00,
2013-04-06 02:40:00,32.5,31.0,30.14,WSW,250,0.0,0.0,94,0.00,,,0.00,Wunderground v.1.15,2013-04-06 06:40:00,
2013-04-06 02:50:00,32.2,30.7,30.13,WSW,250,0.0,0.0,94,0.00,,,0.00,Wunderground v.1.15,2013-04-06 06:50:00,
2013-04-06 02:55:00,32.2,30.7,30.14,WSW,250,0.0,0.0,94,0.00,,,0.00,Wunderground v.1.15,2013-04-06 06:55:00,
2013-04-06 03:05:00,32.2,30.9,30.14,WSW,250,0.0,0.0,95,0.00,,,0.00,Wunderground v.1.15,2013-04-06 07:05:00,
2013-04-06 03:15:00,31.9,30.4,30.14,WSW,250,0.0,0.0,94,0.00,,,0.00,Wunderground v.1.15,2013-04-06 07:15:00,
2013-04-06 03:20:00,31.6,30.1,30.14,WSW,250,0.0,0.0,94,0.00,,,0.00,Wunderground v.1.15,2013-04-06 07:20:00,
2013-04-06 03:25:00,31.5,30.0,30.14,WSW,250,0.0,0.0,94,0.00,,,0.00,Wunderground v.1.15,2013-04-06 07:25:00,
2013-04-06 03:35:00,31.5,30.2,30.15,WSW,250,0.0,0.0,95,0.00,,,0.00,Wunderground v.1.15,2013-04-06 07:35:00,
2013-04-06 03:40:00,31.5,30.2,30.15,WSW,244,0.0,0.0,95,0.00,,,0.00,Wunderground v.1.15,2013-04-06 07:40:00,
2013-04-06 03:50:00,31.5,30.2,30.15,WSW,244,0.0,0.0,95,0.00,,,0.00,Wunderground v.1.15,2013-04-06 07:50:00,
2013-04-06 03:55:00,31.3,30.0,30.15,WSW,244,0.0,0.0,95,0.00,,,0.00,Wunderground v.1.15,2013-04-06 07:55:00,
2013-04-06 04:05:00,31.0,29.7,30.15,WSW,244,0.0,0.0,95,0.00,,,0.00,Wunderground v.1.15,2013-04-06 08:05:00,
2013-04-06 04:10:00,30.9,29.6,30.15,WSW,244,0.0,0.0,95,0.00,,,0.00,Wunderground v.1.15,2013-04-06 08:10:00,
2013-04-06 04:15:00,30.9,29.6,30.15,WSW,244,0.0,0.0,95,0.00,,,0.00,Wunderground v.1.15,2013-04-06 08:15:00,
2013-04-06 04:25:00,30.7,29.4,30.15,WSW,244,0.0,0.0,95,0.00,,,0.00,Wunderground v.1.15,2013-04-06 08:25:00,
2013-04-06 04:30:00,30.6,29.3,30.15,WSW,244,0.0,0.0,95,0.00,,,0.00,Wunderground v.1.15,2013-04-06 08:30:00,
2013-04-06 04:35:00,30.3,29.0,30.15,WSW,244,0.0,0.0,95,0.00,,,0.00,Wunderground v.1.15,2013-04-06 08:35:00,
2013-04-06 04:45:00,29.8,28.5,30.15,WSW,244,0.0,0.0,95,0.00,,,0.00,Wunderground v.1.15,2013-04-06 08:45:00,
2013-04-06 04:50:00,29.8,28.5,30.16,WSW,244,0.0,0.0,95,0.00,,,0.00,Wunderground v.1.15,2013-04-06 08:50:00,
2013-04-06 04:55:00,29.7,28.4,30.16,WSW,244,0.0,0.0,95,0.00,,,0.00,Wunderground v.1.15,2013-04-06 08:55:00,
2013-04-06 05:00:00,29.8,28.5,30.15,WSW,244,0.0,0.0,95,0.00,,,0.00,Wunderground v.1.15,2013-04-06 09:00:00,
2013-04-06 05:10:00,30.1,28.8,30.15,WSW,244,0.0,0.0,95,0.00,,,0.00,Wunderground v.1.15,2013-04-06 09:10:00,
2013-04-06 05:20:00,30.4,29.4,30.16,WSW,244,0.0,0.0,96,0.00,,,0.00,Wunderground v.1.15,2013-04-06 09:20:00,
2013-04-06 05:30:00,30.3,29.0,30.16,WSW,244,0.0,0.0,95,0.00,,,0.00,Wunderground v.1.15,2013-04-06 09:30:00,
2013-04-06 05:40:00,29.7,28.4,30.17,WSW,244,0.0,0.0,95,0.00,,,0.00,Wunderground v.1.15,2013-04-06 09:40:00,
2013-04-06 05:50:00,29.5,28.2,30.17,WSW,244,0.0,0.0,95,0.00,,,0.00,Wunderground v.1.15,2013-04-06 09:50:00,
2013-04-06 06:01:00,29.3,28.0,30.18,WSW,244,0.0,0.0,95,0.00,,,0.00,Wunderground v.1.15,2013-04-06 10:01:00,
2013-04-06 06:10:00,29.0,27.7,30.18,WSW,244,0.0,0.0,95,0.00,,,0.00,Wunderground v.1.15,2013-04-06 10:10:00,
2013-04-06 06:15:00,29.0,27.7,30.18,WSW,244,0.0,0.0,95,0.00,,,0.00,Wunderground v.1.15,2013-04-06 10:15:00,
2013-04-06 06:20:00,29.0,28.0,30.19,WSW,244,0.0,0.0,96,0.00,,,0.00,Wunderground v.1.15,2013-04-06 10:20:00,
2013-04-06 06:30:00,29.0,28.0,30.19,WSW,244,0.0,0.0,96,0.00,,,0.00,Wunderground v.1.15,2013-04-06 10:30:00,
2013-04-06 06:35:00,28.8,27.5,30.19,WSW,244,0.0,0.0,95,0.00,,,0.00,Wunderground v.1.15,2013-04-06 10:35:00,
2013-04-06 06:40:00,28.7,27.7,30.20,WSW,244,0.0,0.0,96,0.00,,,0.00,Wunderground v.1.15,2013-04-06 10:40:00,
2013-04-06 06:50:00,28.8,27.8,30.20,WSW,244,0.0,0.0,96,0.00,,,0.00,Wunderground v.1.15,2013-04-06 10:50:00,
2013-04-06 07:00:00,28.8,27.8,30.21,WSW,244,0.0,0.0,96,0.00,,,0.00,Wunderground v.1.15,2013-04-06 11:00:00,
2013-04-06 07:10:00,29.0,28.0,30.21,WSW,244,0.0,0.0,96,0.00,,,0.00,Wunderground v.1.15,2013-04-06 11:10:00,
2013-04-06 07:15:00,29.0,28.0,30.21,WSW,244,0.0,0.0,96,0.00,,,0.00,Wunderground v.1.15,2013-04-06 11:15:00,
2013-04-06 07:20:00,29.0,28.0,30.22,WSW,244,0.0,0.0,96,0.00,,,0.00,Wunderground v.1.15,2013-04-06 11:20:00,
2013-04-06 07:30:00,29.0,28.0,30.22,WSW,244,0.0,0.0,96,0.00,,,0.00,Wunderground v.1.15,2013-04-06 11:30:00,
2013-04-06 07:40:00,29.5,28.8,30.22,WSW,244,0.0,0.0,97,0.00,,,0.00,Wunderground v.1.15,2013-04-06 11:40:00,
2013-04-06 07:50:00,30.4,29.7,30.22,WSW,244,0.0,0.0,97,0.00,,,0.00,Wunderground v.1.15,2013-04-06 11:50:00,
2013-04-06 08:00:00,31.2,30.4,30.23,WSW,244,0.0,0.0,97,0.00,,,0.00,Wunderground v.1.15,2013-04-06 12:00:00,
2013-04-06 08:05:00,31.8,31.0,30.23,WSW,244,0.0,0.0,97,0.00,,,0.00,Wunderground v.1.15,2013-04-06 12:05:00,
2013-04-06 08:10:00,32.2,31.4,30.24,WSW,244,0.0,0.0,97,0.00,,,0.00,Wunderground v.1.15,2013-04-06 12:10:00,
2013-04-06 08:20:00,33.1,32.1,30.24,WNW,289,0.0,0.0,96,0.00,,,0.01,Wunderground v.1.15,2013-04-06 12:20:00,
2013-04-06 08:30:00,34.3,33.0,30.24,WNW,289,0.0,0.0,95,0.00,,,0.01,Wunderground v.1.15,2013-04-06 12:30:00,
2013-04-06 08:40:00,35.6,34.0,30.24,WNW,289,0.0,0.0,94,0.00,,,0.01,Wunderground v.1.15,2013-04-06 12:40:00,
2013-04-06 08:46:00,36.0,33.9,30.24,WNW,289,0.0,0.0,92,0.00,,,0.01,Wunderground v.1.15,2013-04-06 12:46:00,
2013-04-06 12:50:00,59.0,32.1,30.21,West,264,0.0,0.0,36,0.00,,,0.01,Wunderground v.1.15,2013-04-06 16:50:00,
2013-04-06 13:00:00,59.6,28.9,30.21,WSW,243,0.0,0.0,31,0.00,,,0.01,Wunderground v.1.15,2013-04-06 17:00:00,
2013-04-06 13:05:00,59.8,32.1,30.21,West,261,0.0,4.0,35,0.00,,,0.01,Wunderground v.1.15,2013-04-06 17:05:00,
2013-04-06 13:15:00,60.2,30.2,30.20,SW,221,2.0,2.0,32,0.00,,,0.01,Wunderground v.1.15,2013-04-06 17:15:00,
2013-04-06 13:20:00,60.4,28.8,30.20,West,273,0.0,1.0,30,0.00,,,0.01,Wunderground v.1.15,2013-04-06 17:20:00,
2013-04-06 13:30:00,60.5,25.4,30.20,WSW,254,1.0,1.0,26,0.00,,,0.01,Wunderground v.1.15,2013-04-06 17:30:00,
2013-04-06 17:20:00,66.9,34.4,30.10,South,181,0.0,0.0,30,0.00,,,0.01,Wunderground v.1.15,2013-04-06 21:20:00,
2013-04-06 17:25:00,67.3,35.6,30.10,South,181,0.0,0.0,31,0.00,,,0.01,Wunderground v.1.15,2013-04-06 21:25:00,
2013-04-06 17:30:00,67.1,37.0,30.10,South,180,0.0,0.0,33,0.00,,,0.01,Wunderground v.1.15,2013-04-06 21:30:00,
2013-04-06 17:35:00,66.9,35.3,30.10,South,179,0.0,0.0,31,0.00,,,0.01,Wunderground v.1.15,2013-04-06 21:35:00,
2013-04-06 17:40:00,66.8,34.3,30.10,South,179,0.0,0.0,30,0.00,,,0.01,Wunderground v.1.15,2013-04-06 21:40:00,
2013-04-06 17:45:00,66.8,35.2,30.10,South,179,0.0,0.0,31,0.00,,,0.01,Wunderground v.1.15,2013-04-06 21:45:00,
2013-04-06 17:55:00,66.6,36.6,30.10,South,179,0.0,0.0,33,0.00,,,0.01,Wunderground v.1.15,2013-04-06 21:55:00,
2013-04-06 18:00:00,66.6,35.0,30.10,South,179,0.0,0.0,31,0.00,,,0.01,Wunderground v.1.15,2013-04-06 22:00:00,
2013-04-06 18:10:00,66.1,33.7,30.10,South,179,0.0,0.0,30,0.00,,,0.01,Wunderground v.1.15,2013-04-06 22:10:00,
2013-04-06 18:15:00,66.0,34.5,30.10,South,179,0.0,0.0,31,0.00,,,0.01,Wunderground v.1.15,2013-04-06 22:15:00,
2013-04-06 18:20:00,65.5,37.1,30.11,South,179,0.0,0.0,35,0.00,,,0.01,Wunderground v.1.15,2013-04-06 22:20:00,
2013-04-06 18:25:00,65.2,36.1,30.10,South,179,0.0,0.0,34,0.00,,,0.01,Wunderground v.1.15,2013-04-06 22:25:00,
2013-04-06 18:30:00,65.0,36.7,30.10,South,179,0.0,0.0,35,0.00,,,0.01,Wunderground v.1.15,2013-04-06 22:30:00,
2013-04-06 18:35:00,64.8,37.2,30.10,South,179,0.0,0.0,36,0.00,,,0.01,Wunderground v.1.15,2013-04-06 22:35:00,
2013-04-06 18:41:00,64.5,35.5,30.10,South,179,0.0,0.0,34,0.00,,,0.01,Wunderground v.1.15,2013-04-06 22:41:00,
2013-04-06 18:50:00,64.2,38.0,30.11,South,179,0.0,0.0,38,0.00,,,0.01,Wunderground v.1.15,2013-04-06 22:50:00,
2013-04-06 18:55:00,63.9,39.7,30.11,South,179,0.0,0.0,41,0.00,,,0.01,Wunderground v.1.15,2013-04-06 22:55:00,
2013-04-06 19:00:00,63.5,38.7,30.11,South,180,0.0,0.0,40,0.00,,,0.01,Wunderground v.1.15,2013-04-06 23:00:00,
2013-04-06 19:10:00,62.9,35.5,30.11,South,190,1.0,2.0,36,0.00,,,0.01,Wunderground v.1.15,2013-04-06 23:10:00,
2013-04-06 19:15:00,62.6,36.6,30.11,South,189,1.0,2.0,38,0.00,,,0.01,Wunderground v.1.15,2013-04-06 23:15:00,
2013-04-06 19:20:00,62.1,36.2,30.11,SSE,167,1.0,1.0,38,0.00,,,0.01,Wunderground v.1.15,2013-04-06 23:20:00,
2013-04-06 19:25:00,61.8,35.9,30.11,SSE,167,0.0,1.0,38,0.00,,,0.01,Wunderground v.1.15,2013-04-06 23:25:00,
2013-04-06 19:30:00,61.5,34.3,30.11,South,174,1.0,1.0,36,0.00,,,0.01,Wunderground v.1.15,2013-04-06 23:30:00,
2013-04-06 19:35:00,61.0,34.5,30.11,South,172,1.0,1.0,37,0.00,,,0.01,Wunderground v.1.15,2013-04-06 23:35:00,
2013-04-06 19:40:00,60.7,34.3,30.11,South,172,0.0,0.0,37,0.00,,,0.01,Wunderground v.1.15,2013-04-06 23:40:00,
2013-04-06 19:45:00,60.5,33.4,30.11,South,169,0.0,0.0,36,0.00,,,0.01,Wunderground v.1.15,2013-04-06 23:45:00,
2013-04-06 19:55:00,60.2,33.1,30.12,SSE,167,2.0,2.0,36,0.00,,,0.01,Wunderground v.1.15,2013-04-06 23:55:00,
2013-04-06 20:00:00,59.9,32.9,30.12,SSE,163,1.0,3.0,36,0.00,,,0.01,Wunderground v.1.15,2013-04-07 00:00:00,
2013-04-06 20:05:00,59.8,32.8,30.12,SSE,159,0.0,3.0,36,0.00,,,0.01,Wunderground v.1.15,2013-04-07 00:05:00,
2013-04-06 20:10:00,59.6,32.6,30.12,SSE,160,0.0,3.0,36,0.00,,,0.01,Wunderground v.1.15,2013-04-07 00:10:00,
2013-04-06 20:15:00,59.5,32.5,30.12,SSE,164,0.0,3.0,36,0.00,,,0.01,Wunderground v.1.15,2013-04-07 00:15:00,
2013-04-06 20:25:00,59.0,33.4,30.12,SSE,162,0.0,2.0,38,0.00,,,0.01,Wunderground v.1.15,2013-04-07 00:25:00,
2013-04-06 20:30:00,58.7,32.5,30.12,SSE,157,0.0,0.0,37,0.00,,,0.01,Wunderground v.1.15,2013-04-07 00:30:00,
2013-04-06 20:40:00,58.4,32.9,30.13,SSE,155,0.0,0.0,38,0.00,,,0.01,Wunderground v.1.15,2013-04-07 00:40:00,
2013-04-06 20:50:00,57.8,32.3,30.13,South,174,0.0,0.0,38,0.00,,,0.01,Wunderground v.1.15,2013-04-07 00:50:00,
2013-04-06 21:05:00,57.3,32.5,30.13,SSE,165,0.0,1.0,39,0.00,,,0.01,Wunderground v.1.15,2013-04-07 01:05:00,
2013-04-06 21:10:00,57.3,33.2,30.13,SSE,165,0.0,0.0,40,0.00,,,0.01,Wunderground v.1.15,2013-04-07 01:10:00,
2013-04-06 21:20:00,56.9,33.4,30.14,SSE,164,0.0,0.0,41,0.00,,,0.01,Wunderground v.1.15,2013-04-07 01:20:00,
2013-04-06 21:30:00,56.7,33.2,30.14,SSE,148,0.0,0.0,41,0.00,,,0.01,Wunderground v.1.15,2013-04-07 01:30:00,
2013-04-06 21:45:00,56.6,33.8,30.14,South,175,0.0,0.0,42,0.00,,,0.01,Wunderground v.1.15,2013-04-07 01:45:00,
2013-04-06 21:55:00,56.3,32.9,30.14,SSW,199,0.0,0.0,41,0.00,,,0.01,Wunderground v.1.15,2013-04-07 01:55:00,
2013-04-06 22:00:00,56.3,32.9,30.14,South,173,0.0,0.0,41,0.00,,,0.01,Wunderground v.1.15,2013-04-07 02:00:00,
2013-04-06 22:10:00,56.0,32.0,30.13,SSE,164,0.0,0.0,40,0.00,,,0.01,Wunderground v.1.15,2013-04-07 02:10:00,
2013-04-06 22:20:00,56.0,32.6,30.14,South,188,1.0,4.0,41,0.00,,,0.01,Wunderground v.1.15,2013-04-07 02:20:00,
2013-04-06 22:30:00,55.9,32.5,30.14,South,178,2.0,2.0,41,0.00,,,0.01,Wunderground v.1.15,2013-04-07 02:30:00,
2013-04-06 22:40:00,55.6,32.8,30.14,SSE,168,1.0,1.0,42,0.00,,,0.01,Wunderground v.1.15,2013-04-07 02:40:00,
2013-04-06 22:45:00,55.3,32.6,30.14,SSE,167,0.0,1.0,42,0.00,,,0.01,Wunderground v.1.15,2013-04-07 02:45:00,
2013-04-06 22:50:00,55.3,32.6,30.14,SSE,157,0.0,0.0,42,0.00,,,0.01,Wunderground v.1.15,2013-04-07 02:50:00,
2013-04-06 23:00:00,55.1,33.0,30.14,South,171,0.0,0.0,43,0.00,,,0.01,Wunderground v.1.15,2013-04-07 03:00:00,
2013-04-06 23:05:00,55.0,32.9,30.14,South,175,0.0,4.0,43,0.00,,,0.01,Wunderground v.1.15,2013-04-07 03:05:00,
2013-04-06 23:15:00,55.1,33.0,30.14,South,173,1.0,6.0,43,0.00,,,0.01,Wunderground v.1.15,2013-04-07 03:15:00,
2013-04-06 23:25:00,55.1,32.4,30.14,SSE,168,1.0,1.0,42,0.00,,,0.01,Wunderground v.1.15,2013-04-07 03:25:00,
2013-04-06 23:30:00,55.1,32.4,30.13,SSE,162,2.0,4.0,42,0.00,,,0.01,Wunderground v.1.15,2013-04-07 03:30:00,
2013-04-06 23:45:00,54.8,32.1,30.14,South,176,1.0,1.0,42,0.00,,,0.01,Wunderground v.1.15,2013-04-07 03:45:00,
2013-04-06 23:55:00,54.4,31.8,30.14,South,182,0.0,0.0,42,0.00,,,0.01,Wunderground v.1.15,2013-04-07 03:55:00,